Location: Newark
(48.1500°N, 2.9667°W)
Time: 03:20:21
(UTC+00:00)

Transit 2A - Pass Details

Date: 24 January 2020
Orbit: 600 x 959 km, 66.7° (Epoch: 16 February)

Event Time Altitude Azimuth Distance (km) Brightness Sun altitude
Rises 05:22:05 0° 321° (NW) 2,969 - -24.5°
Reaches altitude 10° 05:24:19 10° 317° (NW) 2,095 - -24.1°
Maximum altitude 05:28:56 54° 241° (WSW) 859 - -23.3°
Exits shadow 05:29:20 53° 222° (SW) 879 6.0 -23.2°
Drops below altitude 10° 05:34:00 10° 165° (SSE) 2,295 8.7 -22.5°
Sets 05:36:33 0° 161° (SSE) 3,280 9.6 -22.0°
